Observations

Aujourd'hui

  • Température

    Max: 5.5° à 11:39:06

    Moy: 4.4°

    Min: 3.6° à 04:08:44

 

  • Humidité

    Max: 98% à 11:39:06

    Min: 98% à 11:39:06

 

  • Précipitation accumulée

    Aujourd'hui: 0 mm

    Ce mois-ci: 3 mm

    Cette année: 56 mm



HeureTemperaturePoint de roséeHumiditéDir. VentVitesseRafalesPressionPrecip.Precip. Accum.
11:39 5.5°C 5.2°C 98% 3.2 km/h 7.2 km/h 998 hPa 0 mm/hr 0 mm
11:34 5.5°C 5.2°C 98% 7.2 km/h 7.2 km/h 998 hPa 0 mm/hr 0 mm
11:29 5.4°C 5.1°C 98% 0 km/h 5.8 km/h 998 hPa 0 mm/hr 0 mm
11:24 5.4°C 5.1°C 98% 2.9 km/h 5.8 km/h 998 hPa 0 mm/hr 0 mm
11:19 5.4°C 5.1°C 98% 5 km/h 5.5 km/h 998 hPa 0 mm/hr 0 mm
11:14 5.4°C 5.1°C 98% 0 km/h 5.5 km/h 998 hPa 0 mm/hr 0 mm
11:09 5.4°C 5.1°C 98% 0 km/h 4 km/h 998 hPa 0 mm/hr 0 mm
11:04 5.4°C 5.1°C 98% 0 km/h 5.5 km/h 1000 hPa 0 mm/hr 0 mm
10:59 5.4°C 5.1°C 98% 2.6 km/h 5.5 km/h 1000 hPa 0 mm/hr 0 mm
10:54 5.3°C 5°C 98% 0 km/h 4.3 km/h 1000 hPa 0 mm/hr 0 mm
10:49 5.3°C 5°C 98% 0 km/h 3.2 km/h 1000 hPa 0 mm/hr 0 mm
10:44 5.3°C 5°C 98% 0 km/h 2.9 km/h 1000 hPa 0 mm/hr 0 mm
10:39 5.2°C 4.9°C 98% 0 km/h 2.9 km/h 1000 hPa 0 mm/hr 0 mm
10:34 5.2°C 4.9°C 98% 0 km/h 5.5 km/h 1000 hPa 0 mm/hr 0 mm
10:29 5.1°C 4.8°C 98% 0 km/h 6.1 km/h 1000 hPa 0 mm/hr 0 mm
10:24 5.1°C 4.8°C 98% 3.2 km/h 6.1 km/h 1000 hPa 0 mm/hr 0 mm
10:19 5.1°C 4.8°C 98% 6.1 km/h 6.1 km/h 1001 hPa 0 mm/hr 0 mm
10:14 5°C 4.7°C 98% 0 km/h 4 km/h 1001 hPa 0 mm/hr 0 mm
10:09 5°C 4.7°C 98% 4 km/h 6.1 km/h 1001 hPa 0 mm/hr 0 mm
09:59 4.9°C 4.6°C 98% 0 km/h 3.2 km/h 1001 hPa 0 mm/hr 0 mm
09:54 4.9°C 4.6°C 98% 0 km/h 2.9 km/h 1001 hPa 0 mm/hr 0 mm
09:49 4.8°C 4.5°C 98% 0 km/h 2.9 km/h 1001 hPa 0 mm/hr 0 mm
09:44 4.8°C 4.5°C 98% 0 km/h 4.3 km/h 1001 hPa 0 mm/hr 0 mm
09:39 4.8°C 4.5°C 98% 2.9 km/h 4.3 km/h 1001 hPa 0 mm/hr 0 mm
09:34 4.7°C 4.4°C 98% 4 km/h 5.8 km/h 1001 hPa 0 mm/hr 0 mm
09:24 4.7°C 4.4°C 98% 0 km/h 4.3 km/h 1001 hPa 0 mm/hr 0 mm
09:19 4.7°C 4.4°C 98% 0 km/h 3.2 km/h 1001 hPa 0 mm/hr 0 mm
09:14 4.7°C 4.4°C 98% 0 km/h 3.2 km/h 1002 hPa 0 mm/hr 0 mm
09:09 4.7°C 4.4°C 98% 3.2 km/h 4 km/h 1002 hPa 0 mm/hr 0 mm
09:04 4.7°C 4.4°C 98% 0 km/h 4 km/h 1002 hPa 0 mm/hr 0 mm
08:59 4.6°C 4.3°C 98% 0 km/h 2.6 km/h 1002 hPa 0 mm/hr 0 mm
08:54 4.6°C 4.3°C 98% 0 km/h 2.6 km/h 1002 hPa 0 mm/hr 0 mm
08:49 4.6°C 4.3°C 98% 0 km/h 1.8 km/h 1002 hPa 0 mm/hr 0 mm
08:44 4.6°C 4.3°C 98% 0 km/h 1.8 km/h 1002 hPa 0 mm/hr 0 mm
08:39 4.6°C 4.3°C 98% 1.8 km/h 2.1 km/h 1002 hPa 0 mm/hr 0 mm
08:34 4.6°C 4.3°C 98% 0 km/h 3.2 km/h 1002 hPa 0 mm/hr 0 mm
08:29 4.6°C 4.3°C 98% 0 km/h 3.2 km/h 1002 hPa 0 mm/hr 0 mm
08:24 4.6°C 4.3°C 98% 3.2 km/h 3.2 km/h 1002 hPa 0 mm/hr 0 mm
08:19 4.6°C 4.3°C 98% 2.1 km/h 4 km/h 1002 hPa 0 mm/hr 0 mm
08:14 4.6°C 4.3°C 98% 2.1 km/h 4 km/h 1002 hPa 0 mm/hr 0 mm
08:09 4.6°C 4.3°C 98% 0 km/h 3.2 km/h 1002 hPa 0 mm/hr 0 mm
08:04 4.6°C 4.3°C 98% 3.2 km/h 3.2 km/h 1002 hPa 0 mm/hr 0 mm
07:59 4.6°C 4.3°C 98% 0 km/h 4.3 km/h 1003 hPa 0 mm/hr 0 mm
07:54 4.6°C 4.3°C 98% 0 km/h 4.7 km/h 1003 hPa 0 mm/hr 0 mm
07:49 4.6°C 4.3°C 98% 0 km/h 6.1 km/h 1003 hPa 0 mm/hr 0 mm
07:44 4.6°C 4.3°C 98% 4 km/h 6.1 km/h 1003 hPa 0 mm/hr 0 mm
07:39 4.6°C 4.3°C 98% 0 km/h 4.7 km/h 1003 hPa 0 mm/hr 0 mm
07:34 4.6°C 4.3°C 98% 2.6 km/h 4.7 km/h 1003 hPa 0 mm/hr 0 mm
07:29 4.5°C 4.2°C 98% 0 km/h 4.7 km/h 1003 hPa 0 mm/hr 0 mm
07:24 4.5°C 4.2°C 98% 2.9 km/h 4.7 km/h 1003 hPa 0 mm/hr 0 mm
07:19 4.5°C 4.2°C 98% 4.3 km/h 4.7 km/h 1003 hPa 0 mm/hr 0 mm
07:14 4.5°C 4.2°C 98% 0 km/h 4 km/h 1003 hPa 0 mm/hr 0 mm
07:09 4.5°C 4.2°C 98% 2.9 km/h 5.5 km/h 1003 hPa 0 mm/hr 0 mm
07:04 4.4°C 4.1°C 98% 0 km/h 5.5 km/h 1003 hPa 0 mm/hr 0 mm
06:59 4.4°C 4.1°C 98% 5.5 km/h 5.5 km/h 1003 hPa 0 mm/hr 0 mm
06:54 4.4°C 4.1°C 98% 3.2 km/h 4 km/h 1003 hPa 0 mm/hr 0 mm
06:49 4.4°C 4.1°C 98% 4 km/h 4 km/h 1003 hPa 0 mm/hr 0 mm
06:44 4.4°C 4.1°C 98% 0 km/h 4 km/h 1003 hPa 0 mm/hr 0 mm
06:39 4.4°C 4.1°C 98% 0 km/h 4.3 km/h 1003 hPa 0 mm/hr 0 mm
06:34 4.4°C 4.1°C 98% 0 km/h 6.1 km/h 1003 hPa 0 mm/hr 0 mm
06:29 4.3°C 4°C 98% 4.3 km/h 6.1 km/h 1004 hPa 0 mm/hr 0 mm
06:24 4.3°C 4°C 98% 0 km/h 2.1 km/h 1004 hPa 0 mm/hr 0 mm
06:19 4.3°C 4°C 98% 0 km/h 5 km/h 1004 hPa 0 mm/hr 0 mm
06:14 4.3°C 4°C 98% 2.1 km/h 6.4 km/h 1004 hPa 0 mm/hr 0 mm
06:09 4.3°C 4°C 98% 0 km/h 6.4 km/h 1004 hPa 0 mm/hr 0 mm
06:04 4.3°C 4°C 98% 0 km/h 2.1 km/h 1004 hPa 0 mm/hr 0 mm
05:59 4.2°C 3.9°C 98% 0 km/h 2.6 km/h 1004 hPa 0 mm/hr 0 mm
05:54 4.2°C 3.9°C 98% 0 km/h 4.3 km/h 1004 hPa 0 mm/hr 0 mm
05:49 4.1°C 3.8°C 98% 0 km/h 4.3 km/h 1004 hPa 0 mm/hr 0 mm
05:44 4.1°C 3.8°C 98% 0 km/h 4.3 km/h 1005 hPa 0 mm/hr 0 mm
05:39 4.1°C 3.8°C 98% 0 km/h 4.3 km/h 1005 hPa 0 mm/hr 0 mm
05:34 4.1°C 3.8°C 98% 0 km/h 5 km/h 1005 hPa 0 mm/hr 0 mm
05:29 4°C 3.7°C 98% 2.1 km/h 5 km/h 1005 hPa 0 mm/hr 0 mm
05:24 4°C 3.7°C 98% 2.6 km/h 2.6 km/h 1005 hPa 0 mm/hr 0 mm
05:19 4°C 3.7°C 98% 0 km/h 2.1 km/h 1005 hPa 0 mm/hr 0 mm
05:14 4°C 3.7°C 98% 0 km/h 0 km/h 1005 hPa 0 mm/hr 0 mm
05:09 3.9°C 3.6°C 98% 0 km/h 2.1 km/h 1005 hPa 0 mm/hr 0 mm
05:04 3.9°C 3.6°C 98% 0 km/h 2.1 km/h 1005 hPa 0 mm/hr 0 mm
04:59 3.9°C 3.6°C 98% 0 km/h 2.6 km/h 1006 hPa 0 mm/hr 0 mm
04:54 3.9°C 3.6°C 98% 0 km/h 2.6 km/h 1006 hPa 0 mm/hr 0 mm
04:49 3.8°C 3.5°C 98% 2.6 km/h 4 km/h 1006 hPa 0 mm/hr 0 mm
04:44 3.8°C 3.5°C 98% 0 km/h 4 km/h 1006 hPa 0 mm/hr 0 mm
04:39 3.8°C 3.5°C 98% 0 km/h 0 km/h 1006 hPa 0 mm/hr 0 mm
04:34 3.8°C 3.5°C 98% 0 km/h 0 km/h 1006 hPa 0 mm/hr 0 mm
04:29 3.7°C 3.4°C 98% 0 km/h 0 km/h 1006 hPa 0 mm/hr 0 mm
04:24 3.7°C 3.4°C 98% 0 km/h 0 km/h 1006 hPa 0 mm/hr 0 mm
04:19 3.7°C 3.4°C 98% 0 km/h 0 km/h 1006 hPa 0 mm/hr 0 mm
04:14 3.7°C 3.4°C 98% 0 km/h 0 km/h 1007 hPa 0 mm/hr 0 mm
04:09 3.6°C 3.3°C 98% 0 km/h 0 km/h 1007 hPa 0 mm/hr 0 mm
04:04 3.7°C 3.4°C 98% 0 km/h 0 km/h 1007 hPa 0 mm/hr 0 mm
03:59 3.6°C 3.3°C 98% 0 km/h 0 km/h 1007 hPa 0 mm/hr 0 mm
03:54 3.6°C 3.3°C 98% 0 km/h 0 km/h 1007 hPa 0 mm/hr 0 mm
03:49 3.6°C 3.3°C 98% 0 km/h 0 km/h 1007 hPa 0 mm/hr 0 mm
03:44 3.6°C 3.3°C 98% 0 km/h 0 km/h 1007 hPa 0 mm/hr 0 mm
03:39 3.7°C 3.4°C 98% 0 km/h 0 km/h 1007 hPa 0 mm/hr 0 mm
03:34 3.7°C 3.4°C 98% 0 km/h 0 km/h 1007 hPa 0 mm/hr 0 mm
03:29 3.7°C 3.4°C 98% 0 km/h 0 km/h 1007 hPa 0 mm/hr 0 mm
03:24 3.8°C 3.5°C 98% 0 km/h 0 km/h 1007 hPa 0 mm/hr 0 mm
03:19 3.8°C 3.5°C 98% 0 km/h 0 km/h 1007 hPa 0 mm/hr 0 mm
03:14 3.8°C 3.5°C 98% 0 km/h 0 km/h 1008 hPa 0 mm/hr 0 mm
03:09 3.8°C 3.5°C 98% 0 km/h 0 km/h 1008 hPa 0 mm/hr 0 mm
03:04 3.8°C 3.5°C 98% 0 km/h 0 km/h 1008 hPa 0 mm/hr 0 mm
02:59 3.8°C 3.5°C 98% 0 km/h 0 km/h 1008 hPa 0 mm/hr 0 mm
02:54 3.9°C 3.6°C 98% 0 km/h 0 km/h 1008 hPa 0 mm/hr 0 mm
02:49 3.9°C 3.6°C 98% 0 km/h 0 km/h 1008 hPa 0 mm/hr 0 mm
02:44 4°C 3.7°C 98% 0 km/h 0 km/h 1008 hPa 0 mm/hr 0 mm
02:39 4°C 3.7°C 98% 0 km/h 0 km/h 1008 hPa 0 mm/hr 0 mm
02:34 4.1°C 3.8°C 98% 0 km/h 0 km/h 1008 hPa 0 mm/hr 0 mm
02:29 4.1°C 3.8°C 98% 0 km/h 0 km/h 1008 hPa 0 mm/hr 0 mm
02:24 4.2°C 3.9°C 98% 0 km/h 2.1 km/h 1008 hPa 0 mm/hr 0 mm
02:19 4.3°C 4°C 98% 0 km/h 2.1 km/h 1008 hPa 0 mm/hr 0 mm
02:14 4.3°C 4°C 98% 0 km/h 0 km/h 1008 hPa 0 mm/hr 0 mm
02:09 4.4°C 4.1°C 98% 0 km/h 0 km/h 1008 hPa 0 mm/hr 0 mm
02:04 4.4°C 4.1°C 98% 0 km/h 0 km/h 1008 hPa 0 mm/hr 0 mm
01:59 4.4°C 4.1°C 98% 0 km/h 0 km/h 1008 hPa 0 mm/hr 0 mm
01:54 4.4°C 4.1°C 98% 0 km/h 0 km/h 1008 hPa 0 mm/hr 0 mm
01:49 4.4°C 4.1°C 98% 0 km/h 0 km/h 1008 hPa 0 mm/hr 0 mm
01:44 4.4°C 4.1°C 98% 0 km/h 0 km/h 1009 hPa 0 mm/hr 0 mm
01:39 4.4°C 4.1°C 98% 0 km/h 0 km/h 1009 hPa 0 mm/hr 0 mm
01:34 4.4°C 4.1°C 98% 0 km/h 0 km/h 1009 hPa 0 mm/hr 0 mm
01:29 4.4°C 4.1°C 98% 0 km/h 0 km/h 1009 hPa 0 mm/hr 0 mm
01:24 4.4°C 4.1°C 98% 0 km/h 0 km/h 1009 hPa 0 mm/hr 0 mm
01:19 4.4°C 4.1°C 98% 0 km/h 0 km/h 1009 hPa 0 mm/hr 0 mm
01:14 4.4°C 4.1°C 98% 0 km/h 0 km/h 1010 hPa 0 mm/hr 0 mm
01:09 4.4°C 4.1°C 98% 0 km/h 0 km/h 1010 hPa 0 mm/hr 0 mm
01:04 4.4°C 4.1°C 98% 0 km/h 0 km/h 1010 hPa 0 mm/hr 0 mm
00:59 4.4°C 4.1°C 98% 0 km/h 0 km/h 1010 hPa 0 mm/hr 0 mm
00:54 4.4°C 4.1°C 98% 0 km/h 0 km/h 1010 hPa 0 mm/hr 0 mm
00:49 4.4°C 4.1°C 98% 0 km/h 0 km/h 1010 hPa 0 mm/hr 0 mm
00:44 4.4°C 4.1°C 98% 0 km/h 0 km/h 1010 hPa 0 mm/hr 0 mm
00:39 4.4°C 4.1°C 98% 0 km/h 0 km/h 1010 hPa 0 mm/hr 0 mm
00:34 4.4°C 4.1°C 98% 0 km/h 2.1 km/h 1010 hPa 0 mm/hr 0 mm
00:29 4.4°C 4.1°C 98% 0 km/h 2.1 km/h 1010 hPa 0 mm/hr 0 mm
00:24 4.4°C 4.1°C 98% 0 km/h 0 km/h 1010 hPa 0 mm/hr 0 mm
00:19 4.4°C 4.1°C 98% 0 km/h 0 km/h 1010 hPa 0 mm/hr 0 mm
00:14 4.5°C 4.2°C 98% 0 km/h 0 km/h 1010 hPa 0 mm/hr 0 mm
00:09 4.5°C 4.2°C 98% 0 km/h 0 km/h 1010 hPa 0 mm/hr 0 mm
00:04 4.5°C 4.2°C 98% 0 km/h 0 km/h 1010 hPa 0 mm/hr 0 mm